カタログに戻る

STARLINK-30841

運用中通信VLEO
NORAD 58208·PAYLOAD·🇺🇸 United States

打ち上げ Nov 3, 2023 から Cape Canaveral Space Force Station

Loading…

次のパス (今後24時間)

TLE

最新Source: CelesTrak SupGP

元期: Sep 14, 2026, 22:13 UTC

1 58208C 23170C   26257.92618056  .00001882  00000+0  68165-4 0  2570
2 58208  43.0015 205.7476 0001245 259.4032 253.8212 15.27578405    14

AllMySatでSTARLINK-30841をリアルタイム追跡

Download on the App Store